EDT,Max TemperatureF,Mean TemperatureF,Min TemperatureF,Max Dew PointF,MeanDew PointF,Min DewpointF,Max Humidity, Mean Humidity, Min Humidity, Max Sea Level PressureIn, Mean Sea Level PressureIn, Min Sea Level PressureIn, Max VisibilityMiles, Mean VisibilityMiles, Min VisibilityMiles, Max Wind SpeedMPH, Mean Wind SpeedMPH, Max Gust SpeedMPH,PrecipitationIn, CloudCover, Events, WindDirDegrees
2013-10-1,80,66,51,58,53,48,94,78,42,30.06,30.02,29.95,10,6,2,12,2,,0.00,2,,289
2013-10-2,82,68,53,59,56,51,100,76,44,30.06,30.02,29.97,10,6,1,14,4,20,0.00,0,,284
2013-10-3,82,68,55,63,58,54,100,78,47,30.14,30.09,30.04,10,5,0,7,2,,0.00,0,Fog,185
2013-10-4,84,70,57,67,62,57,100,83,47,30.09,30.05,30.00,10,4,0,10,1,,0.03,2,Fog-Thunderstorm,300
2013-10-5,86,73,64,67,65,61,100,83,47,30.09,30.05,30.00,10,5,1,7,2,,0.00,3,Rain,247
2013-10-6,82,73,64,67,65,63,100,84,53,30.06,30.01,29.93,10,4,1,13,5,21,0.00,4,,122
2013-10-7,73,62,52,70,62,44,94,88,71,30.04,29.85,29.75,10,7,0,25,12,33,1.26,7,Fog-Rain,218
2013-10-8,66,56,46,47,44,41,93,68,42,30.32,30.23,30.06,10,10,10,12,3,,0.00,0,,360
2013-10-9,60,54,48,46,44,42,90,70,55,30.38,30.32,30.26,10,10,10,13,6,20,0.00,0,,52
2013-10-10,57,54,51,55,52,45,100,91,72,30.25,30.11,30.02,10,5,1,20,10,24,2.35,8,Rain,40
2013-10-11,62,58,55,61,56,53,100,94,86,30.06,30.01,29.97,10,5,1,16,9,22,3.35,8,Rain-Thunderstorm,42
2013-10-12,70,64,59,57,51,41,88,67,40,30.22,30.12,30.04,10,10,10,15,8,22,0.00,7,,67
2013-10-13,69,60,50,54,50,47,89,70,49,30.36,30.29,30.21,10,10,10,13,9,18,0.00,5,,83
2013-10-14,66,58,50,51,49,47,93,77,51,30.37,30.31,30.24,10,10,7,6,2,,0.00,4,,53
2013-10-15,71,58,46,52,48,45,100,81,46,30.25,30.20,30.11,10,6,0,7,1,,0.00,1,Fog,91
2013-10-16,66,59,52,58,53,48,93,81,73,30.10,30.03,29.92,10,9,4,7,2,,0.00,7,,136
2013-10-17,70,65,60,63,60,57,97,86,73,29.91,29.84,29.70,10,6,4,15,3,,0.09,7,Rain,164
2013-10-18,63,54,45,52,43,40,86,65,44,30.01,29.92,29.80,10,10,9,17,10,24,0.00,2,,292
2013-10-19,61,50,39,54,46,39,97,83,54,30.01,29.89,29.77,10,6,1,13,3,31,0.09,3,Rain,181
2013-10-20,60,49,39,45,37,35,83,65,41,30.09,30.00,29.84,10,10,10,20,10,20,0.00,0,,283
2013-10-21,64,50,36,43,38,35,97,68,36,30.16,30.07,29.96,10,9,5,14,3,23,0.00,0,,169
2013-10-22,60,48,39,48,40,29,97,72,43,29.96,29.86,29.81,10,9,4,17,4,,0.00,3,,284
2013-10-23,53,45,37,36,33,28,86,67,41,29.85,29.76,29.67,10,10,9,14,4,,0.00,3,,310
2013-10-24,50,41,34,34,29,26,85,67,43,30.10,29.98,29.86,10,10,10,21,9,31,0.00,3,,271
2013-10-25,52,40,30,34,30,27,85,67,48,30.28,30.20,30.10,10,10,7,18,8,25,0.00,1,,283
2013-10-26,54,42,30,32,28,26,88,58,34,30.28,30.10,29.92,10,10,5,17,6,33,0.00,2,,241
2013-10-27,55,45,35,34,30,28,78,57,40,30.16,30.03,29.92,10,10,10,21,7,26,0.00,1,,290
2013-10-28,59,44,30,35,32,28,89,67,39,30.30,30.23,30.16,10,10,5,7,1,,0.00,0,,310
2013-10-29,59,46,35,38,36,32,89,70,44,30.41,30.36,30.31,10,9,6,8,2,,0.00,1,,91
2013-10-30,60,52,44,52,47,39,100,90,75,30.34,30.24,30.17,8,4,0,7,2,,0.00,6,Fog,113
2013-10-31,64,57,50,58,54,49,100,92,73,30.20,30.06,29.77,10,3,0,14,3,25,0.04,7,Fog-Rain,148